This demonstration page uses our WeatherBlox Daily Observations layout. Learn more.

Left ArrowRight Arrow

38.80484, -77.04692

Hourly Observations for May 21, 2015

Temp ( °F °C ) Dew Point ( °F °C ) Humidity (%) Winds ( mph kmh ) Pressure ( in mb ) Visibility ( mi km ) Precip ( " mm )
12:52 am 00:52 Mostly Cloudy 63 17.2 42 5.6 47 47 NE 10 17 30.01 1016 10 16 N/A
1:52 am 01:52 Cloudy 62 16.7 42 5.6 48 48 ENE 6 9 29.99 1016 10 16 N/A
2:52 am 02:52 Cloudy 62 16.7 41 5 46 46 ENE 8 13 30.00 1016 10 16 N/A
3:52 am 03:52 Cloudy 62 16.7 41 5 46 46 E 3 6 30.00 1016 10 16 N/A
4:52 am 04:52 Cloudy 62 16.7 42 5.6 48 48 ENE 3 6 30.01 1016 10 16 N/A
5:52 am 05:52 Cloudy 61 16.1 43 6.1 52 52 ENE 6 9 30.00 1016 10 16 N/A
6:52 am 06:52 Cloudy 62 16.7 43 6.1 50 50 E 8 13 29.98 1015 10 16 N/A
7:52 am 07:52 Cloudy 61 16.1 44 6.7 54 54 E 6 9 29.99 1016 10 16 N/A
8:52 am 08:52 Cloudy with Light Rain 60 15.6 49 9.4 67 67 E 8 13 30.00 1016 10 16 0.01 0.25
9:52 am 09:52 Cloudy with Light Rain 58 14.4 47 8.3 67 67 E 6 9 30.02 1017 5 8 0.03 0.76
10:19 am 10:19 Cloudy with Light Rain 55 13 48 9 77 77 VRB 6 9 30.03 1017 3 5 0.04 1.02
10:28 am 10:28 Cloudy with Rain 55 13 50 10 82 82 SE 7 11 30.03 1017 3 5 N/A
10:31 am 10:31 Cloudy with Rain 55 13 50 10 82 82 ESE 7 11 30.03 1017 3 5 0.08 2.03
10:52 am 10:52 Cloudy with Light Rain 55 12.8 50 10 83 83 ENE 8 13 30.04 1017 7 11 0.14 3.56
11:03 am 11:03 Cloudy with Light Rain 54 12 46 8 77 77 NE 10 17 30.03 1017 5 8 N/A
11:47 am 11:47 Cloudy with Light Rain 54 12 48 9 82 82 NE 13 20 30.03 1017 3 4 0.03 0.76
11:52 am 11:52 Cloudy with Light Rain 54 12.2 48 8.9 80 80 NNE 12 19 30.02 1017 3 5 0.03 0.76
11:57 am 11:57 Cloudy with Light Rain 54 12 48 9 82 82 NE 10 17 30.03 1017 3 5 0.01 0.25
12:07 pm 12:07 Cloudy with Light Rain 54 12 48 9 82 82 ENE 14 22 30.03 1017 3 4 0.01 0.25
12:19 pm 12:19 Cloudy with Light Rain 54 12 48 9 82 82 ENE 14 22 30.00 1016 4 6 0.02 0.51
12:52 pm 12:52 Cloudy with Light Rain 53 11.7 49 9.4 86 86 NE 13 20 30.00 1016 4 6 0.03 0.76
12:56 pm 12:56 Cloudy with Light Rain 54 12 48 9 82 82 ENE 12 19 30.00 1016 3 4 N/A
1:09 pm 13:09 Cloudy with Light Rain 54 12 48 9 82 82 ENE 12 19 30.00 1016 3 4 0.02 0.51
1:26 pm 13:26 Cloudy with Light Rain 54 12 48 9 82 82 ENE 13 20 30.00 1016 3 5 0.06 1.52
1:52 pm 13:52 Cloudy with Light Rain 53 11.7 48 8.9 83 83 ENE 9 15 29.98 1015 6 10 0.07 1.78
2:08 pm 14:08 Cloudy with Light Rain 54 12 48 9 82 82 E 8 13 29.97 1015 3 4 N/A
2:19 pm 14:19 Cloudy with Light Rain 54 12 48 9 82 82 ENE 9 15 29.97 1015 3 5 0.01 0.25
2:32 pm 14:32 Cloudy with Light Rain 54 12 48 9 82 82 NE 12 19 29.97 1015 5 8 N/A
2:52 pm 14:52 Cloudy with Light Rain 54 12.2 49 9.4 83 83 ENE 12 19 29.96 1015 6 10 0.02 0.51
3:04 pm 15:04 Cloudy with Light Rain 54 12 50 10 88 88 E 9 15 29.97 1015 6 10 N/A
3:15 pm 15:15 Cloudy 54 12 48 9 82 82 E 7 11 29.94 1014 10 16 N/A
3:33 pm 15:33 Cloudy with Light Rain 54 12 48 9 82 82 NNE 9 15 29.97 1015 9 14 N/A
3:47 pm 15:47 Cloudy 54 12 48 9 82 82 ENE 7 11 29.94 1014 10 16 N/A
3:52 pm 15:52 Cloudy 54 12.2 49 9.4 83 83 ENE 8 13 29.93 1014 10 16 N/A
4:27 pm 16:27 Cloudy 55 13 48 9 77 77 ENE 7 11 29.94 1014 10 16 N/A
4:43 pm 16:43 Cloudy 55 13 48 9 77 77 ENE 9 15 29.94 1014 10 16 N/A
4:52 pm 16:52 Cloudy 55 12.8 49 9.4 80 80 ENE 7 11 29.93 1014 10 16 N/A
5:52 pm 17:52 Cloudy 55 12.8 48 8.9 77 77 NNE 8 13 29.93 1014 10 16 N/A
6:52 pm 18:52 Cloudy 55 12.8 48 8.9 77 77 NE 7 11 29.94 1014 10 16 N/A
7:12 pm 19:12 Cloudy 55 13 48 9 77 77 NNE 5 7 29.94 1014 10 16 N/A
7:52 pm 19:52 Cloudy 55 12.8 48 8.9 77 77 NE 5 7 29.96 1014 10 16 N/A
8:14 pm 20:14 Cloudy 55 13 48 9 77 77 N 6 9 29.94 1014 10 16 N/A
8:26 pm 20:26 Mostly Cloudy 55 13 48 9 77 77 N 7 11 29.94 1014 10 16 N/A
8:36 pm 20:36 Mostly Cloudy 55 13 48 9 77 77 NNW 7 11 29.94 1014 10 16 N/A
8:52 pm 20:52 Mostly Cloudy 55 12.8 48 8.9 77 77 N 5 7 29.95 1014 10 16 N/A
9:22 pm 21:22 Partly Cloudy 54 12 48 9 82 82 NNW 7 11 29.94 1014 10 16 N/A
9:52 pm 21:52 Mostly Clear 54 12.2 48 8.9 80 80 NW 7 11 29.96 1015 9 14 N/A
10:32 pm 22:32 Mostly Cloudy 55 13 48 9 77 77 NW 6 9 29.97 1015 10 16 N/A
10:52 pm 22:52 Mostly Cloudy 54 12.2 48 8.9 80 80 NNW 8 13 29.96 1015 10 16 N/A
11:52 pm 23:52 Partly Cloudy 54 12.2 48 8.9 80 80 NNW 6 9 29.96 1015 10 16 N/A

Powered by AerisWeather